Terminal Aerodrome Forecast
Issued by NWS Charleston, WV

Current Version | Previous Version | Graphics & Text | Print | Product List | Glossary On
Versions: 1 2 3 4 5 6 7 8 9 10 11 12 13 14 15 16 17 18 19 20 21
000
FTUS41 KRLX 240900 AAA
TAFCRW
TAF AMD
KCRW 240900Z 2409/2506 00000KT P6SM SKC
     FM241200 VRB04KT P6SM SCT250
     FM241700 20006KT P6SM FEW045
     FM250200 VRB03KT P6SM BKN250=

USA.gov is the U.S. government's official web portal to all federal, state and local government web resources and services.